Regional Weather Roundup
Issued by NWS

Home | Current Version | Previous Version | Text Only | Print | Product List | Glossary On
Versions: 1 2 3 4 5 6 7 8 9 10 11 12 13 14 15 16 17 18 19 20 21 22 23 24 25 26 27 28
000
ASUS46 KPQR 280510
RWROR

OREGON REGIONAL WEATHER ROUNDUP
NATIONAL WEATHER SERVICE PORTLAND OR
1000 PM PDT SAT AUG 27 2016

NOTE: "FAIR" INDICATES FEW OR NO CLOUDS BELOW 12,000 FEET WITH
NO SIGNIFICANT WEATHER AND/OR OBSTRUCTIONS TO VISIBILITY.

ORZ001>013-280600-
NORTHWEST OREGON


CITY           SKY/WX    TMP DP  RH WIND       PRES   REMARKS
ASTORIA        CLOUDY    60  57  89 CALM      30.03R
NEWPORT        CLOUDY    55  55 100 CALM      30.06S FOG
PORTLAND       PTCLDY    65  54  67 N7        30.00R
VANCOUVER WA   PTCLDY    63  54  72 VRB7      30.00R
SCAPPOOSE      CLEAR     61  54  77 N5        29.99R
HILLSBORO      CLEAR     63  54  72 N10       29.99R
AURORA         CLEAR     66  55  67 NE5       30.00R
MCMINNVILLE    CLEAR     62  54  74 SW6       30.00R
SALEM          CLEAR     65  55  70 NW8       29.98R
CORVALLIS        N/A     61  54  77 N8        30.01R
EUGENE         CLEAR     66  53  63 E6        30.00R
$$

ORZ021-028-280600-
SOUTHWEST OREGON


CITY           SKY/WX    TMP DP  RH WIND       PRES   REMARKS
NORTH BEND     CLOUDY    55  54  94 CALM      30.06S
BROOKINGS      CLOUDY    53  52  96 CALM      30.05S
ROSEBURG       CLEAR     73  48  41 N9        29.99R
SEXTON SUMMIT  CLEAR     64  40  41 N10       30.09R
MEDFORD        CLEAR     79  44  28 CALM      29.95R
$$

ORZ014>016-041-280600-
COLUMBIA GORGE


CITY           SKY/WX    TMP DP  RH WIND       PRES   REMARKS
TROUTDALE      PTCLDY    66  54  65 VRB5      29.99R
HOOD RIVER     CLEAR     70  55  60 W7        29.93R
THE DALLES     MOCLDY    75  55  49 W20G31    29.86R
$$

ORZ029>031-041-044-049-050-061>064-502-503-505>511-280600-
EASTERN OREGON


CITY           SKY/WX    TMP DP  RH WIND       PRES   REMARKS
REDMOND        PTCLDY    70  38  31 NE6       30.00R
BEND           PTCLDY    64  41  42 CALM      30.00S
PRINEVILLE     CLEAR     68  41  37 CALM      30.00R
KLAMATH FALLS  CLEAR     65  42  43 NW3       30.07R
LAKEVIEW       CLEAR     63  34  34 NE5       30.10S
HERMISTON      CLOUDY    77  50  38 W16       29.84R
PENDLETON      MOCLDY    73  51  46 W15G24    29.88R
JOHN DAY       CLEAR     74  41  29 CALM      29.99R
MEACHAM        PTCLDY    64  43  46 CALM      30.01R
LA GRANDE      CLEAR     68  37  32 N6        29.94R
BAKER CITY     PTCLDY    68  40  35 NW6       29.96R
BURNS          CLEAR     64  32  30 W9        30.00R
ROME             N/A     66  19  16 SE10      29.97R
ONTARIO        CLEAR     72  44  36 N5        29.84R
$$




USA.gov is the U.S. government's official web portal to all federal, state and local government web resources and services.